Location: Ç?ral? Körfezi
(36.3984°N, 30.4829°E)
Time: 07:28:37
(UTC+00:00)

Daily predictions for brighter satellites

Satellite Brightness Start Highest point End
(mag) Time Altitude Azimuth Time Altitude Azimuth Time Altitude Azimuth
Cosmos 2227 Rocket 2.4 16:03:42 10° NNW 16:09:15 54° ENE 16:14:46 10° SE
Hubble Space Telescope 2.2 16:05:58 10° SW 16:09:24 26° S 16:12:50 10° ESE
CZ-4B R/B 3.8 16:05:51 10° SE 16:10:38 35° ENE 16:15:30 10° N
ARGOS 4.3 16:06:37 10° S 16:11:47 50° W 16:17:00 10° NNW
Cosmos 1975 3.0 16:09:05 10° S 16:13:07 78° W 16:17:11 10° N
Cosmos 1733 3.8 16:10:29 10° SSE 16:13:52 33° E 16:17:16 10° NNE
PAYLOAD B 4.3 16:08:50 10° SSE 16:14:13 57° ENE 16:19:35 10° N
CZ-4 R/B 2.9 16:11:53 10° ESE 16:14:51 19° ENE 16:17:51 10° NNE
Okean 2 4.0 16:11:44 10° N 16:15:35 36° ENE 16:19:24 10° SSE
CZ-4 R/B 4.4 16:13:11 10° SSE 16:17:15 68° ENE 16:21:20 10° N
KORONAS-FOTON 3.8 16:13:28 10° N 16:17:18 60° E 16:21:06 10° SSE
Spot 1 3.9 16:15:10 10° NNE 16:19:23 75° ESE 16:23:26 10° S
Cosmos 1980 Rocket 2.3 16:14:21 10° S 16:19:49 54° ESE 16:25:18 10° NNE
Okean O Rocket 2.6 16:16:43 10° SE 16:20:21 27° ENE 16:24:00 10° NNE
Lacrosse 5 3.1 16:17:13 10° NW 16:22:00 43° SW 16:26:46 10° SSE
Cosmos 2297 Rocket 2.6 16:18:01 10° NNW 16:23:40 71° WSW 16:29:16 10° SSE
Cosmos 2242 Rocket 4.1 16:19:45 10° NNW 16:24:06 63° W 16:28:25 10° S
Cosmos 468 Rocket 4.2 16:19:23 10° N 16:24:24 49° ENE 16:29:25 10° SE
Cosmos 2369 3.7 16:19:24 10° S 16:25:02 65° ESE 16:30:43 10° NNE
Cosmos 1707 3.2 16:23:17 10° NNW 16:27:03 65° W 16:30:48 10° S
USA 229 DEB 4.4 16:22:07 10° NNW 16:29:14 45° NE 16:36:45 10° ESE
USA 229 4.4 16:22:13 10° NNW 16:29:19 45° NE 16:36:49 10° ESE
CZ-4B DEB 4.4 16:24:57 10° S 16:30:23 76° WSW 16:35:51 10° NNW
CZ-4C R/B 4.3 16:23:41 10° NW 16:31:07 47° WSW 16:39:23 10° S
ASTEX 1 3.4 16:27:08 10° N 16:32:08 83° E 16:37:07 10° S
Cosmos 2278 4.2 16:27:51 10° SSE 16:32:59 36° ESE 16:38:07 10° NE
SL-16 R/B 3.5 16:33:46 10° SE 16:37:15 17° E 16:40:43 10° ENE
YAOGAN 1 2.7 16:34:40 10° SSE 16:38:51 53° ENE 16:43:04 10° N
Cosmos 1850 Rocket 3.9 16:33:55 10° S 16:39:02 67° ESE 16:44:14 10° NNE
Cosmos 540 Rocket 3.7 16:34:37 10° N 16:39:34 48° ENE 16:44:29 10° SE
Cosmos 1626 2.3 16:36:36 10° NNW 16:40:13 71° W 16:43:48 10° S
Cosmos 1674 Rocket 4.2 16:41:09 10° NNE 16:45:08 33° ENE 16:48:54 11° SE
Landsat 5 4.4 16:41:50 10° NE 16:45:45 29° E 16:49:35 10° SSE
Cosmos 841 Rocket 4.1 16:41:40 10° N 16:46:24 35° ENE 16:49:45 17° ESE
Meteor 2-10 4.1 16:42:08 10° S 16:47:47 70° E 16:53:21 10° NNE
SEDSat Delta rocket 4.4 16:42:38 10° WSW 16:48:33 47° SSE 16:52:53 20° ESE
Cosmos 2279 Rocket 3.9 16:45:17 10° N 16:51:34 82° E 16:57:49 10° S
Cosmos 2142 Rocket 4.5 16:48:03 10° N 16:54:23 85° E 17:00:36 10° S
Cosmos 2180 Rocket 4.5 16:48:16 10° N 16:54:29 64° E 17:00:44 10° SSE
Cosmos 1763 Rocket 3.8 16:50:21 10° NNW 16:55:24 68° WSW 17:00:27 10° S
NOSS 3-1 (A) 4.2 16:48:55 10° NNW 16:56:50 88° ENE 17:05:57 10° SSE
DMSP B5D1-3 4.5 16:52:59 10° NNE 16:58:06 90° WNW 17:03:12 10° SSW
IRIDIUM 104 4.3 16:53:31 10° SSE 16:58:37 60° E 17:03:45 10° N
Cosmos 2219 3.6 16:54:03 10° NNW 16:59:46 69° WSW 17:05:28 10° S
Cosmos 2221 Rocket 3.5 16:57:10 10° N 17:01:40 75° E 17:06:12 10° SSE
DELTA 2 R/B(2) 4.3 17:01:06 10° WNW 17:03:05 59° NNE 17:03:55 39° ENE
ISS -1.3 17:02:11 10° N 17:03:29 12° NNE 17:03:48 12° NNE
Cosmos 1741 Rocket 4.3 17:02:01 10° SSW 17:07:18 70° WNW 17:12:34 10° NNE
HJ-1C 3.7 17:04:18 10° S 17:07:22 61° W 17:10:28 10° NNW
IRIDIUM 114 4.2 17:02:34 10° S 17:07:45 75° E 17:12:58 10° N
SL-14 R/B 3.1 17:04:01 10° N 17:07:59 76° E 17:11:41 12° S
Cosmos 1805 4.4 17:05:52 10° SSW 17:09:34 44° W 17:13:18 10° N
Cosmos 2263 Rocket 2.6 17:05:18 10° N 17:10:41 42° ENE 17:12:35 32° ESE
Meteor 2-14 Rocket 4.5 17:07:25 10° S 17:13:29 83° W 17:19:35 10° N
USA 186 3.7 17:16:11 19° NNE 17:16:11 19° NNE 17:17:24 10° N
OAO 2 Rocket 3.4 17:10:04 10° WSW 17:14:51 55° SSE 17:16:15 40° ESE
Cosmos 1378 Rocket 3.4 17:10:43 10° N 17:15:06 75° E 17:18:14 18° SSE
IGS 5A 4.4 17:17:09 31° NE 17:17:09 31° NE 17:20:07 10° N
IRIDIUM 103 4.3 17:11:41 10° S 17:16:54 88° W 17:22:08 10° N
Cosmos 2082 3.7 17:13:42 10° NNW 17:19:28 89° WSW 17:23:52 18° SSE
Cosmos 1766 3.4 17:18:01 10° SSW 17:21:54 74° W 17:25:49 10° N
Okean-O 3.3 17:23:08 36° NE 17:23:08 36° NE 17:26:35 10° N
CSL-04 Debris 4.2 17:24:34 37° SE 17:26:32 58° ENE 17:31:50 10° N
Cosmos 1814 Rocket 4.4 17:21:51 10° N 17:26:48 41° ENE 17:26:48 41° ENE
Cosmos 1726 3.4 17:24:50 10° SSW 17:28:16 41° W 17:31:45 10° N
Meteor 2-21 Rocket 4.3 17:23:11 10° S 17:29:14 89° W 17:35:19 10° N
BREEZE-M DEB (TANK) 4.4 17:20:10 10° SSW 17:30:44 31° SSE 17:30:59 31° SE
CZ-2C R/B 1.9 17:27:42 10° W 17:30:18 35° SW 17:30:18 35° SW
IRS-1C Rocket 4.3 17:31:09 47° E 17:31:23 48° ENE 17:36:25 10° N
Cosmos 2195 Rocket 4.4 17:27:28 10° S 17:33:32 63° E 17:39:42 10° NNE
Cosmos 1428 Rocket 4.4 17:28:22 10° S 17:34:22 60° E 17:40:28 10° NNE
CZ-3 Stage 3 3.9 17:32:34 10° W 17:38:17 61° S 17:47:28 32° ESE
ATLAS 5 CENTAUR R/B 4.1 17:14:43 10° WSW 17:38:36 29° S 17:43:06 22° SSE
USA 267 4.4 17:32:51 10° SSE 17:38:49 38° SW 17:44:50 10° WNW
CZ-4 R/B 3.3 17:45:55 10° SSW 17:49:32 29° W 17:53:13 10° NW
CRYOSAT 2 4.4 17:50:36 65° NNE 17:50:36 65° NNE 17:54:51 10° N
Hubble Space Telescope 2.7 17:46:46 10° WSW 17:48:55 20° SSW 17:48:55 20° SSW
Cosmos 2026 Rocket 3.7 17:48:40 35° S 17:51:21 74° E 17:57:24 10° N
Cosmos 2285 Rocket 3.9 17:45:27 10° NNW 17:51:47 67° ENE 17:52:21 64° ESE
Timation 2 Rocket 3.9 17:47:07 10° NNW 17:53:32 84° WSW 17:55:08 53° SSE
Cosmos 2322 Rocket 4.4 17:48:34 10° S 17:48:49 11° S 17:48:49 11° S
Okean O Rocket 3.9 17:53:11 10° SSW 17:56:37 23° W 18:00:04 10° NW
CSL-04 Rocket 3.6 17:57:05 69° S 17:57:42 82° WSW 18:03:05 10° NNW
Cosmos 968 Rocket 4.0 18:02:14 10° SSW 18:07:23 57° WNW 18:12:34 10° N
Meteor 1-24 Rocket 4.4 18:14:42 10° N 18:18:19 45° NNW 18:18:19 45° NNW
SL-16 R/B 2.7 18:15:13 10° SW 18:20:46 57° WNW 18:26:22 10° NNE
Resurs 01 Rocket 4.5 18:42:04 11° NNW 18:42:04 11° NNW 18:42:18 10° NNW
Cosmos 2263 Rocket 4.1 18:49:51 10° NW 18:54:17 24° W 18:54:19 24° WSW
